STARLINK-2562 (48288 NORAD) Tracking and Keplerian Element Data

This shows tracking and keplerian element data for the satellite.

Feedback or suggestion? Click here.




ElementValue
Catalog48288
NameSTARLINK-2562
Epoch Orbit197
Epoch Day173.83334491
Epoch Year2021
RAAN257.2663
Inclination53.0518
Eccentricity0.0001768
Argument of Perigee38.0149
Mean Anonmoly337.9244
Mean Motion15.7272544
Decay Rate0.00807633
L11 48288U 21036N 21173.83334491 .00807633 00000-0 53300-2 0 9991
L22 48288 53.0518 257.2663 0001768 38.0149 337.9244 15.72725440 1978

Live tracking and technical data element details for STARLINK-2562 (NORAD 48288). STARLINK-2562 can be tracked NOW for your location showing map with azimuth and elevation plus other details from your city location.

Track the satellite on the map from your city or location and see movement details for azimuth, elevation, latitude, longitude, range, height, and movement on the map or in text.







IsCatalogInMostPopularTable: catalog: 48288, numindb: 20
Update: records affected: 1



GetName: 48288 STARLINK-2562

Hit Count: updated at: Thu, 24 Jun 2021 02:44:41 GMT